Date String (YYYY-MM-DD hh:mm:ss) UTC,Instrument flags,absolute air pressure of the measurement (hPa),sample flow rate (lpm),inlet stack bypass flow (lpm),air temperature of the measurement (°C),ambient temperature measured by the external sensor (°C),aerosol sample conditioner tube jacket temperature (°C),OPC LED temperature (°C),internal box temperature (°C),relative humidity of the measurement (%),span deviation,mass concentration of particles derived from Lorenz-Mie calculation of OPC scattering (μg/m³),mass concentration of particles derived from Lorenz-Mie calculation of OPC scattering (μg/m³),mass concentration of particles derived from Lorenz-Mie calculation of OPC scattering (μg/m³)
DateTimeUTC,F1_M11,P_M11,Q1_M11,Q2_M11,T1_M11,T2_M11,T3_M11,T4_M11,T5_M11,U1_M11,ZSPAN_M11,X0_M11,X2_M11,X1_M11
2023-06-21 16:00:00,SystemResetWarning,0832.6,5.01,000.00,032.3,025.2,000.0,040.0,031.5,35.4,0002.0,0020.26,0012.64,0011.29
2023-06-21 16:01:00,SystemResetWarning,0832.5,5.01,000.00,032.3,025.6,000.0,040.0,031.5,35.5,0002.1,0020.82,0012.75,0011.40
2023-06-21 16:02:00,SystemResetWarning,0832.5,4.98,000.00,032.5,026.1,000.0,040.0,031.7,35.4,0002.2,0020.79,0012.88,0011.48
2023-06-21 16:03:00,SystemResetWarning,0832.6,5.00,000.00,032.7,026.5,000.0,040.0,031.9,34.6,0002.1,0020.83,0012.99,0011.53
2023-06-21 16:04:00,SystemResetWarning,0832.6,5.00,000.00,032.9,026.9,000.0,040.0,031.9,34.1,0002.3,0020.71,0012.98,0011.51
2023-06-21 16:05:00,SystemResetWarning,0832.6,5.01,000.00,032.9,027.2,000.0,040.1,031.9,33.5,0002.3,0020.32,0012.91,0011.45
2023-06-21 16:06:00,SystemResetWarning,0832.7,5.01,000.00,033.0,027.5,000.0,040.2,031.9,33.9,0002.3,0020.10,0012.86,0011.42
2023-06-21 16:07:00,SystemResetWarning,0832.7,4.99,000.00,033.0,027.7,000.0,040.3,031.9,34.1,0002.4,0020.33,0012.79,0011.38
2023-06-21 16:08:00,SystemResetWarning,0832.6,5.00,000.00,032.9,027.9,000.0,040.3,032.0,34.1,0002.4,0020.75,0012.72,0011.34
2023-06-21 16:09:00,SystemResetWarning,0832.6,5.00,000.00,032.9,028.1,000.0,040.4,032.0,34.4,0002.3,0020.76,0012.67,0011.31
2023-06-21 16:10:00,SystemResetWarning,0832.7,5.00,000.00,032.9,027.6,000.0,040.4,032.1,34.6,0002.5,0021.39,0012.75,0011.34
2023-06-21 16:11:00,SystemResetWarning,0832.7,5.00,000.00,033.0,025.9,000.0,040.4,032.1,34.8,0002.6,0022.31,0012.77,0011.36
2023-06-21 16:12:00,SystemResetWarning,0832.6,5.00,000.00,033.0,025.4,000.0,040.4,032.1,34.6,0002.6,0021.93,0012.72,0011.35
2023-06-21 16:13:00,SystemResetWarning,0832.6,5.01,000.00,032.7,025.6,000.0,040.4,031.7,35.0,0002.3,0021.83,0012.70,0011.34
2023-06-21 16:14:00,SystemResetWarning,0832.6,5.02,000.00,032.7,026.0,000.0,040.4,031.7,34.1,0002.3,0023.49,0012.72,0011.38
2023-06-21 16:15:00,SystemResetWarning,0832.6,4.98,000.00,032.6,026.4,000.0,040.4,031.7,33.8,0002.4,0024.30,0012.75,0011.47
2023-06-21 16:16:00,SystemResetWarning,0832.7,5.01,000.00,032.6,026.8,000.0,040.4,031.7,33.9,0002.6,0025.54,0012.88,0011.59
2023-06-21 16:17:00,SystemResetWarning,0832.7,5.01,000.00,032.6,027.2,000.0,040.4,031.8,34.2,0002.5,0026.24,0012.99,0011.67
2023-06-21 16:18:00,SystemResetWarning,0832.6,4.98,000.00,032.5,027.5,000.0,040.4,031.8,34.2,0002.7,0025.62,0013.04,0011.72
2023-06-21 16:19:00,SystemResetWarning,0832.6,4.98,000.00,032.5,027.7,000.0,040.4,031.9,33.8,0002.8,0024.95,0013.12,0011.77
2023-06-21 16:20:00,SystemResetWarning,0832.7,5.02,000.00,032.4,027.9,000.0,040.4,031.9,34.3,0002.7,0025.08,0013.17,0011.82
2023-06-21 16:21:00,SystemResetWarning,0832.7,5.00,000.00,032.4,028.1,000.0,040.4,032.0,34.4,0002.7,0025.50,0013.17,0011.84
2023-06-21 16:22:00,SystemResetWarning,0832.6,4.98,000.00,032.4,027.1,000.0,040.3,032.1,34.8,0002.6,0024.64,0013.17,0011.84
2023-06-21 16:23:00,SystemResetWarning,0832.6,5.01,000.00,032.4,025.2,000.0,040.3,032.0,35.5,0002.6,0024.62,0013.21,0011.87
2023-06-21 16:24:00,SystemResetWarning,0832.6,5.02,000.00,032.5,024.6,000.0,040.2,032.1,34.9,0002.7,0024.33,0013.19,0011.88
2023-06-21 16:25:00,SystemResetWarning,0832.6,4.97,000.00,032.6,024.8,000.0,040.1,031.8,34.6,0002.9,0022.75,0013.17,0011.91
2023-06-21 16:26:00,SystemResetWarning,0832.6,5.05,000.00,032.5,025.2,000.0,040.1,031.7,35.6,0002.8,0022.42,0013.26,0011.91
2023-06-21 16:27:00,SystemResetWarning,0832.7,4.97,000.00,032.6,025.7,000.0,040.1,031.7,34.0,0002.7,0021.76,0013.19,0011.87
2023-06-21 16:28:00,SystemResetWarning,0832.7,5.02,000.00,032.6,026.2,000.0,040.1,031.7,33.8,0002.7,0021.73,0013.14,0011.85
2023-06-21 16:29:00,SystemResetWarning,0832.7,5.00,000.00,032.6,026.6,000.0,040.2,031.6,33.6,0002.6,0021.64,0013.08,0011.80
2023-06-21 16:30:00,SystemResetWarning,0832.7,5.00,000.00,032.6,027.0,000.0,040.2,031.7,34.2,0002.5,0022.33,0012.95,0011.73
2023-06-21 16:31:00,SystemResetWarning,0832.7,5.00,000.00,032.6,027.3,000.0,040.3,031.7,33.6,0002.6,0022.77,0012.89,0011.65
2023-06-21 16:32:00,SystemResetWarning,0832.7,5.00,000.00,032.5,027.6,000.0,040.3,031.7,34.2,0002.5,0021.76,0012.81,0011.57
2023-06-21 16:33:00,SystemResetWarning,0832.6,4.98,000.00,032.5,027.8,000.0,040.3,031.8,35.1,0002.4,0022.18,0012.77,0011.49
2023-06-21 16:34:00,SystemResetWarning,0832.7,5.02,000.00,032.6,028.0,000.0,040.3,031.9,34.7,0002.4,0022.53,0012.69,0011.43
2023-06-21 16:35:00,SystemResetWarning,0832.7,4.99,000.00,032.7,028.1,000.0,040.4,032.0,34.4,0002.5,0023.00,0012.65,0011.40
2023-06-21 16:36:00,SystemResetWarning,0832.7,5.00,000.00,032.8,026.9,000.0,040.3,032.2,33.7,0002.2,0023.15,0012.57,0011.32
2023-06-21 16:37:00,SystemResetWarning,0832.6,5.00,000.00,032.8,025.3,000.0,040.3,032.1,33.7,0002.2,0022.74,0012.43,0011.22
2023-06-21 16:38:00,SystemResetWarning,0832.7,5.00,000.00,032.8,024.8,000.0,040.2,032.0,34.7,0002.3,0022.22,0012.42,0011.20
2023-06-21 16:39:00,SystemResetWarning,0832.6,5.00,000.00,032.6,025.0,000.0,040.2,031.7,35.6,0002.1,0021.58,0012.41,0011.20
2023-06-21 16:40:00,SystemResetWarning,0832.6,5.02,000.00,032.6,025.4,000.0,040.2,031.6,35.8,0002.0,0021.96,0012.47,0011.23
2023-06-21 16:41:00,SystemResetWarning,0832.7,5.00,000.00,032.8,025.9,000.0,040.2,031.8,35.4,0001.9,0021.36,0012.57,0011.30
2023-06-21 16:42:00,SystemResetWarning,0832.7,4.99,000.00,033.0,026.4,000.0,040.3,031.9,34.8,0001.9,0021.15,0012.57,0011.36
2023-06-21 16:43:00,SystemResetWarning,0832.7,4.99,000.00,033.1,026.8,000.0,040.3,031.9,34.5,0001.9,0021.77,0012.62,0011.41
2023-06-21 16:44:00,SystemResetWarning,0832.7,5.01,000.00,033.2,027.1,000.0,040.4,031.9,34.5,0002.2,0021.57,0012.58,0011.42
2023-06-21 16:45:00,SystemResetWarning,0832.7,5.00,000.00,033.2,027.4,000.0,040.4,031.9,34.6,0002.2,0021.00,0012.54,0011.42
2023-06-21 16:46:00,SystemResetWarning,0832.7,4.98,000.00,033.2,027.7,000.0,040.5,032.0,34.7,0002.0,0020.96,0012.54,0011.38
2023-06-21 16:47:00,SystemResetWarning,0832.8,5.01,000.00,033.2,027.9,000.0,040.6,032.0,34.6,0002.1,0020.17,0012.50,0011.35
2023-06-21 16:48:00,SystemResetWarning,0832.8,5.00,000.00,033.1,028.1,000.0,040.6,032.1,34.7,0002.2,0020.07,0012.49,0011.37
2023-06-21 16:49:00,SystemResetWarning,0832.7,5.00,000.00,033.1,027.5,000.0,040.6,032.2,34.8,0002.1,0020.19,0012.55,0011.41
2023-06-21 16:50:00,SystemResetWarning,0832.7,4.99,000.00,033.2,025.6,000.0,040.6,032.2,35.1,0002.2,0020.53,0012.63,0011.46
2023-06-21 16:51:00,SystemResetWarning,0832.7,5.03,000.00,033.3,024.7,000.0,040.6,032.3,34.9,0002.2,0020.56,0012.73,0011.53
2023-06-21 16:52:00,SystemResetWarning,0832.8,4.96,000.00,033.4,024.8,000.0,040.5,032.0,34.6,0002.5,0021.35,0012.80,0011.57
2023-06-21 16:53:00,SystemResetWarning,0832.8,5.03,000.00,033.2,025.2,000.0,040.5,031.8,34.7,0002.4,0021.22,0012.86,0011.58
2023-06-21 16:54:00,SystemResetWarning,0832.8,4.98,000.00,033.1,025.7,000.0,040.6,031.7,34.5,0002.3,0020.69,0012.91,0011.60
2023-06-21 16:55:00,SystemResetWarning,0832.8,5.00,000.00,033.1,026.2,000.0,040.6,031.7,34.6,0002.3,0020.91,0013.00,0011.61
2023-06-21 16:56:00,SystemResetWarning,0832.9,5.02,000.00,033.0,026.6,000.0,040.6,031.7,34.4,0002.2,0020.52,0013.08,0011.64
2023-06-21 16:57:00,SystemResetWarning,0832.9,4.99,000.00,033.0,027.0,000.0,040.6,031.7,34.5,0002.3,0020.83,0013.12,0011.71
2023-06-21 16:58:00,SystemResetWarning,0832.9,5.00,000.00,032.9,027.3,000.0,040.6,031.8,33.9,0002.4,0021.57,0013.21,0011.79
2023-06-21 16:59:00,SystemResetWarning,0832.9,5.01,000.00,032.9,027.6,000.0,040.6,031.8,34.3,0002.4,0022.78,0013.32,0011.85
